Погода в Кемчуге

Погода в Кемчуге : погода сейчас, прогноз погоды и архив. Всё, что Вы хотите узнать о погоде в Кемчуге!

Хотите узнать прогноз погоды в Кемчуге? Тогда Вам сюда: Погода в Кемчуге

Поиск расширенной информации на нашем сайте:

Другие новости

Новости СМИ2

Главная страница сайта

Новости сайта

03.07.2017

Напоминаем, что на нашем специализированном сайте Метеоцентр.Азия вы можете получить высокодетализированные автоматические прогнозы погоды по пунктам России, СНГ и мира в авиационном формате (включающие направление и скорость ветра, видимость, явления погоды, количество и форму облачности, нижнюю и верхнюю границу облачности).


Погода в Кемчуге - сегодня

Время (UTC), дата Ветер
(°,м/с) 
Видим.   Явления Облачность Т
(°С)
Тd
(°С)
f(%) Тe
(°С)
Pmin
(гПа)
dP
(гПа)
Po
(мм)
O2
(г/м3)
Тmin Tmax R s Состояние
почвы
09 26.07.17 230 (ЮЗ) 20000 м    10/10 600 м кучево-дожд. 
[Cb cap]
+20.9 +15.9 73 +32  1003  724  268           
12 26.07.17 240 (ЮЗ) 20000 м    8/8 600 м кучево-дожд. 
[Cb cap]
+22.8 +15.3 63 +33  1002.5  -0.3  724  266    +23.5       
15 26.07.17 220 (ЮЗ) 50000 м  {ливн. осадки}  8/8 600 м кучево-дожд. 
[Cb cap]
+17.9 +16.8 93 +32  1004.3  1.2  725  270           
18 26.07.17 210 (ЮЗ) 50000 м  {ливн. осадки}  4/4 600 м кучево-дожд. 
[Cb cap]
+16.8 +16.3 97 +30  1004.8  0.4  725  272           
21 26.07.17 220 (ЮЗ) 50000 м  {ливн. осадки}  5/5 600 м кучево-дожд. 
[Cb cap]
+16.3 +16 98 +28  1005.2  0.2  725  272           
00 27.07.17 230 (ЮЗ) 20000 м  {ливн. осадки}  8/3 600 м кучево-дожд., верхняя 
[Cb cap|Ci fib]
+16.8 +16.4 97 +30  1006.4  1.3  726  272  +16.1    0.5    сухая 
03 27.07.17 220 (ЮЗ) 20000 м    8/5 600 м кучево-дожд., верхняя 
[Cb cap|Ci sp]
+21.5 +18.1 81 +37  1006.1  0.3  726  267           
06 27.07.17 200 (Ю) 20000 м  в посл. час гроза{ливн. осадки}  8/6 600 м кучево-дожд., верхняя 
[Cb cap|Ci sp]
+20 +17.9 88 +35  1006.2  -0.1  726  269           
09 27.07.17 270 (З) 20000 м    6/3 600 м кучево-дожд., верхняя 
[Cb calv|Ci sp]
+25.5 +15.2 53 +35  1005.3  -0.3  726  264           
12 27.07.17 280 (З) 20000 м    5/3 1000 м верхняя 
[Cu hum|Ci fib]
+25.8 +14.7 50 +35  1005.5  0.3  726  264    +26.8  0.5     
15 27.07.17 150 (ЮВ) 50000 м    3/1 600 м кучево-дожд., верхняя 
[Cb cap|Ci fib]
+20.9 +15.8 73 +32  1005.8  -0.3  726  268           
18 27.07.17 100 (В) 50000 м    ясно 
+16.8 +16.1 96 +30  1006.5  0.2  726  272           
21 27.07.17 100 (В) 50000 м    ясно 
+15.5 +15.1 97 +27  1006.3  -0.5  726  273           
00 28.07.17 100 (В) 20000 м    ясно 
+18.7 +16.6 88 +33  1005.7  -0.1  726  270  +14.9        сухая 
03 28.07.17 150 (ЮВ) 20000 м    10/0 верхняя 
[Cs]
+25.8 +16.7 57 +26               
06 28.07.17 130 (ЮВ) 20000 м    9/1 600 м кучево-дожд., средняя, верхняя 
[Cb cap|Ac As|Ci fib]
+27.9 +17.1 52 +41  1003.3  -0.8  725  261           
09 28.07.17 160 (Ю) 20000 м    8/5 600 м кучево-дожд., средняя 
[Cb cap|As trans]
+29.5 +17.2 48 +43  1002.3  -0.8  724  260           
12 28.07.17 090 (В) 20000 м    9/5 600 м кучево-дожд., средняя, верхняя 
[Cb cap|As op|Cs]
+27.8 +18 55 +43  1001.9  -0.6  724  261    +30.9       
15 28.07.17 090 (В) 50000 м    4/4 600 м кучево-дожд. 
[Cb cap]
+23.9 +16.6 64 +37  1001.6  -0.8  723  264           
18 28.07.17 190 (Ю) 12000 м  гроза, ливневой дождь  10/10 600 м кучево-дожд. 
[Cb cap]
+19.3 +17.9 92 +36  1001  -1.1  722  268           
21 28.07.17 140 (ЮВ) 50000 м  в посл. час гроза{ливн. осадки}  9/9 600 м кучево-дожд. 
[Cb cap]
+19.8 +17.6 87 +36  1000.1  -0.8  722  267           
00 29.07.17 120 (ЮВ) 3{13}  20000 м  в посл. час гроза{ливн. осадки}  10/10 600 м кучево-дожд. 
[Cb cap]
+18.2 +17.8 98 +34  999.5  -0.8  721  268  +17.7    10    мокрая 
03 29.07.17 260 (З) 20000 м    9/3 600 м кучево-дожд., средняя, верхняя 
[Cb cap|Ac trans|Ci sp]
+21.6 +20.1 91 +42  999  721  264           
06 29.07.17 320 (СЗ) 20000 м    10/10 600 м кучево-дожд. 
[Cb cap]
+22.2 +18.1 78 +38  999.6  0.7  722  265           
09 29.07.17 230 (ЮЗ) 20000 м    5/4 600 м кучево-дожд., верхняя 
[Cb calv|Ci fib]
+24.5 +15.7 58 +35  999.6  0.2  722  264           
Время (UTC), дата Ветер
(°,м/с) 
Видим.   Явления Облачность Т
(°С)
Тd
(°С)
f(%) Тe
(°С)
Pmin
(гПа)
dP
(гПа)
Po
(мм)
O2
(г/м3)
Тmin Tmax R s Состояние
почвы

Для получения пояснительной информации подведите курсор к названию столбца.

ПОГОДА в Кемчуге - архив

Всё, что Вы хотите узнать о погоде в Кемчуге - удобно и подробно!

Выберите нужную дату (начиная с 1 января 2015* года) и нажмите кнопку "Найти".
Будут отображены архивные сводки погоды по пункту Кемчуг, начиная с указанной даты.


Отображать данные в формате CSV (для использования в таблицах Excel)


Внимание! Наш архив погоды предназначен исключительно для личного некоммерческого использования в познавательных целях. Если Вам необходимы официальные справки о состоянии погоды (для производственных, юридических, коммерческих и т.п. целей), обращайтесь в органы Росгидромета.

*Примечание: данная дата относится к архиву по метеостанциям СССР (Россия, СНГ, Балтия).
Архив по метеостанциям Зарубежной Европы и Азии (кроме Китая) хранится 10 дней, по другим регионам земного шара (Китай, Африка, Америка, Австралия, Океания) - 1 день.

Кемчуг - район местоположения метеостанции


Название, широта, долгота, высота метеостанции:
Кемчуг 56.1°ш. 91.7°д. 332 м над ур. моря [Российская Федерация]

Дополнительная информация

В oтличие oт бoльшинства пoгoдных сайтoв мы публикуем пoдрoбную метеoинфoрмацию в детальнoм прoфессиoнальнoм фoрмате.

Характеристики температуры и влажнoсти вoздуха измеряются на высoте 2 м в тени вдали oт зданий и деревьев.
Скoрoсть ветра измеряется на высoте 10 м (на урoвне рoста челoвека скoрoсть ветра ниже в 1.5-2 раза). Если метеoстанция нахoдится в гoрoде или в лесу, тo скoрoсть ветра занижена на 2-4 м/с пo сравнению с oткрытым местoм. Скoрoсть ветра над акватoриями крупных рек и oзёр, а также на вершинах хoлмoв на 2-5 м/с выше, чем в oбычных услoвиях.
Атмoсфернoе давление в разных тoчках местнoсти мoжет значительнo oтличаться oт давления на метеoстанции, в зависимoсти oт услoвий рельефа (при пoдъёме на 10 м давление пoнижается примернo на 1 мм рт.ст.).